Springfield, MO

9:09 PM CST on February 18, 2018 (GMT -0600)
Springfield-Branson Regional

Weather History for KSGF - March, 2013

Change the Weather History Date:

Sunday, March 17, 2013

  Actual Average Record
Temperature  
Mean Temperature 39 °F 47 °F  
Max Temperature 41 °F 58 °F 83 °F (1982)
Min Temperature 37 °F 36 °F 13 °F (1900)
Degree Days  
Heating Degree Days 26 18  
Month to date heating degree days 379 354  
Since 1 July heating degree days 3677 3947  
Cooling Degree Days 0 0  
Month to date cooling degree days 0 0  
Year to date cooling degree days 0 0  
Moisture  
Dew Point 37 °F    
Average Humidity 93    
Maximum Humidity 100    
Minimum Humidity 85    
Precipitation  
Precipitation 1.37 in 0.12 in 1.41 in (2008)
Month to date precipitation 3.13 1.88  
Year to date precipitation 8.47 6.87  
Snow  
Snow 0.00 in - - ()
Month to date snowfall T  
Since 1 July snowfall 7.0  
Snow Depth 0.00 in    
Sea Level Pressure  
Sea Level Pressure 29.86 in    
Wind  
Wind Speed 11 mph (ENE)    
Max Wind Speed 23 mph    
Max Gust Speed 29 mph    
Visibility 6 miles    
Events Rain , Thunderstorm    
T = Trace of Precipitation, MM = Missing Value Source: NWS Daily Summary

Daily Weather History Graph

Daily Weather History Graph

Search for Another Location

Airport or City:

Trip Planner

Search our weather history database for the weather conditions in past years. The results will help you decide how hot, cold, wet, or windy it might be!

Date:

Astronomy

Mar. 17, 2013 Rise Set
Actual Time 7:21 AM CDT 7:22 PM CDT
Civil Twilight 6:55 AM CDT 7:48 PM CDT
Nautical Twilight 6:24 AM CDT 8:19 PM CDT
Astronomical Twilight 5:54 AM CDT 8:49 PM CDT
Moon 10:41 AM CDT (3/17) 12:24 AM CDT (3/17)
Length of Visible Light 12h 53m
Length of Day
12h 01m
Waxing Crescent, 31% of the Moon is Illuminated
Mar 17
Waxing Crescent
Mar 19
First Quarter
Mar 27
Full
Apr 2
Last Quarter
Apr 10
New

Hourly Weather History & Observations

Time (CDT) Temp. Windchill Dew Point Humidity Pressure Visibility Wind Dir Wind Speed Gust Speed Precip Events Conditions
12:00 AM 42.1 °F 34.2 °F 37.0 °F 82% 29.91 in 8.0 mi ENE 16.1 mph - 0.00 in Rain Light Rain
12:35 AM 41.0 °F 32.5 °F 37.0 °F 86% 29.91 in 5.0 mi NE 17.3 mph - 0.04 in Rain Light Rain
12:52 AM 41.0 °F 34.3 °F 37.0 °F 86% 29.93 in 7.0 mi NNE 11.5 mph - 0.04 in   Overcast
1:07 AM 39.9 °F 31.8 °F 37.0 °F 89% 29.92 in 5.0 mi NE 15.0 mph - 0.01 in Rain , Thunderstorm Light Thunderstorms and Rain
1:34 AM 39.0 °F 30.3 °F 37.0 °F 93% 29.92 in 2.0 mi NE 16.1 mph - 0.20 in Rain , Thunderstorm Heavy Thunderstorms and Rain
1:42 AM 39.0 °F 29.6 °F 37.0 °F 93% 29.92 in 4.0 mi NE 18.4 mph - 0.20 in Rain , Thunderstorm Light Rain
1:52 AM 39.0 °F 29.3 °F 37.0 °F 93% 29.93 in 6.0 mi NE 19.6 mph - 0.20 in Rain , Thunderstorm Light Rain
1:59 AM 39.0 °F 31.0 °F 37.0 °F 93% 29.94 in 6.0 mi NNE 13.8 mph - 0.01 in Rain , Thunderstorm Light Rain
2:31 AM 39.0 °F 29.0 °F 36.0 °F 89% 29.90 in 9.0 mi ENE 20.7 mph - 0.03 in Rain Light Rain
2:50 AM 39.2 °F 30.5 °F 35.6 °F 87% 29.92 in 8.0 mi ENE 16.1 mph 24.2 mph 0.03 in Rain Light Rain
2:52 AM 39.0 °F 31.8 °F 36.0 °F 89% 29.93 in 7.0 mi NE 11.5 mph 24.2 mph 0.04 in Rain Rain
2:57 AM 39.0 °F 30.6 °F 36.0 °F 89% 29.92 in 7.0 mi NE 15.0 mph 24.2 mph 0.01 in Rain , Thunderstorm Light Rain
3:18 AM 39.0 °F 29.3 °F 36.0 °F 89% 29.90 in 10.0 mi ENE 19.6 mph - 0.01 in Rain Light Rain
3:37 AM 39.0 °F 31.0 °F 36.0 °F 89% 29.94 in 10.0 mi North 13.8 mph - 0.01 in Rain , Thunderstorm Light Rain
3:52 AM 39.0 °F 29.9 °F 36.0 °F 89% 29.91 in 8.0 mi NE 17.3 mph - 0.01 in Rain , Thunderstorm Rain
4:07 AM 37.9 °F 28.5 °F 36.0 °F 93% 29.92 in 5.0 mi NNE 17.3 mph - 0.05 in Rain , Thunderstorm Light Thunderstorms and Rain
4:22 AM 37.9 °F 28.9 °F 36.0 °F 93% 29.90 in 10.0 mi NE 16.1 mph - 0.06 in Rain , Thunderstorm Light Rain
4:52 AM 37.0 °F - 35.1 °F 93% 29.90 in 10.0 mi North - - 0.08 in Rain , Thunderstorm Light Rain
5:16 AM 37.0 °F 28.5 °F 35.1 °F 93% 29.90 in 9.0 mi ENE 13.8 mph 28.8 mph 0.02 in Rain , Thunderstorm Light Rain
5:33 AM 37.0 °F 28.1 °F 35.1 °F 93% 29.91 in 7.0 mi ENE 15.0 mph 25.3 mph 0.04 in Rain Rain
5:52 AM 37.9 °F 30.0 °F 35.1 °F 89% 29.94 in 10.0 mi NE 12.7 mph 20.7 mph 0.10 in Rain Light Rain
6:03 AM 37.0 °F 29.3 °F 35.1 °F 93% 29.94 in 5.0 mi NNE 11.5 mph 21.9 mph 0.05 in Rain Heavy Rain
6:10 AM 37.0 °F 26.4 °F 35.1 °F 93% 29.91 in 5.0 mi ENE 20.7 mph - 0.07 in Rain Heavy Rain
6:14 AM 37.0 °F 27.4 °F 35.1 °F 93% 29.91 in 5.0 mi ENE 17.3 mph - 0.10 in Rain , Thunderstorm Heavy Rain
6:25 AM 37.9 °F 30.5 °F 36.0 °F 93% 29.94 in 6.0 mi NE 11.5 mph - 0.12 in Rain , Thunderstorm Rain
6:28 AM 37.9 °F 30.9 °F 36.0 °F 93% 29.95 in 5.0 mi NE 10.4 mph - 0.12 in Rain , Thunderstorm Light Thunderstorms and Rain
6:47 AM 37.4 °F 29.3 °F 35.6 °F 93% 29.95 in 7.0 mi NE 12.7 mph - 0.19 in Rain , Thunderstorm Light Rain
6:52 AM 37.0 °F 28.5 °F 36.0 °F 96% 29.98 in 7.0 mi NE 13.8 mph - 0.19 in Rain , Thunderstorm Light Thunderstorms and Rain
7:12 AM 37.0 °F 28.5 °F 35.1 °F 93% 29.92 in 4.0 mi ENE 13.8 mph - 0.08 in Rain , Thunderstorm Rain
7:41 AM 37.0 °F 28.1 °F 35.1 °F 93% 29.92 in 6.0 mi East 15.0 mph 19.6 mph 0.13 in Rain , Thunderstorm Rain
7:44 AM 37.0 °F 28.5 °F 35.1 °F 93% 29.92 in 7.0 mi East 13.8 mph - 0.13 in Rain Light Rain
7:52 AM 37.0 °F 29.3 °F 35.1 °F 93% 29.94 in 6.0 mi East 11.5 mph - 0.14 in Rain Rain
8:36 AM 37.0 °F 28.1 °F 35.1 °F 93% 29.92 in 10.0 mi East 15.0 mph - 0.02 in   Overcast
8:52 AM 37.9 °F 30.5 °F 35.1 °F 89% 29.94 in 10.0 mi East 11.5 mph - 0.02 in Rain Light Rain
9:16 AM 37.9 °F 30.5 °F 35.1 °F 89% 29.93 in 10.0 mi East 11.5 mph - 0.00 in Rain Light Rain
9:52 AM 37.9 °F 30.0 °F 35.1 °F 89% 29.93 in 10.0 mi East 12.7 mph - 0.00 in   Overcast
10:08 AM 37.9 °F 30.5 °F 36.0 °F 93% 29.92 in 10.0 mi East 11.5 mph - N/A   Overcast
10:52 AM 39.0 °F 31.0 °F 36.0 °F 89% 29.92 in 10.0 mi East 13.8 mph - 0.00 in   Overcast
11:52 AM 39.0 °F 30.6 °F 36.0 °F 89% 29.91 in 10.0 mi East 15.0 mph - 0.00 in Rain Light Rain
12:52 PM 39.0 °F 31.8 °F 37.0 °F 93% 29.88 in 10.0 mi East 11.5 mph - 0.02 in   Overcast
1:35 PM 39.9 °F 32.9 °F 37.9 °F 93% 29.84 in 9.0 mi East 11.5 mph - 0.00 in Rain Light Rain
1:52 PM 39.9 °F 32.9 °F 37.9 °F 93% 29.84 in 4.0 mi East 11.5 mph - 0.03 in Rain Light Rain
2:52 PM 41.0 °F 35.8 °F 39.0 °F 93% 29.82 in 3.0 mi East 8.1 mph - 0.07 in Rain Light Rain
2:59 PM 41.0 °F 34.7 °F 39.0 °F 93% 29.79 in 4.0 mi ENE 10.4 mph - 0.01 in Rain , Thunderstorm Light Thunderstorms and Rain
3:14 PM 39.9 °F 33.4 °F 39.0 °F 97% 29.77 in 2.5 mi ENE 10.4 mph - 0.01 in Rain , Thunderstorm Light Rain
3:21 PM 41.0 °F 33.5 °F 39.0 °F 93% 29.76 in 2.0 mi East 13.8 mph - 0.02 in Rain , Thunderstorm Light Thunderstorms and Rain
3:32 PM 39.9 °F 32.1 °F 39.0 °F 97% 29.75 in 2.5 mi East 13.8 mph - 0.03 in Rain , Thunderstorm Light Thunderstorms and Rain
3:35 PM 39.9 °F 32.9 °F 39.0 °F 97% 29.76 in 3.0 mi East 11.5 mph - 0.03 in Rain , Thunderstorm Light Rain
3:52 PM 41.0 °F 34.3 °F 39.0 °F 93% 29.76 in 3.0 mi East 11.5 mph - 0.04 in Rain , Thunderstorm Rain
4:04 PM 41.0 °F 35.2 °F 39.0 °F 93% 29.74 in 6.0 mi ENE 9.2 mph - 0.01 in Rain , Thunderstorm Light Thunderstorms and Rain
4:34 PM 39.9 °F 34.5 °F 39.0 °F 97% 29.74 in 2.0 mi East 8.1 mph - 0.06 in Rain , Thunderstorm Heavy Thunderstorms and Rain
4:52 PM 39.9 °F 35.8 °F 39.0 °F 97% 29.76 in 1.8 mi NE 5.8 mph - 0.18 in Rain , Thunderstorm Heavy Thunderstorms and Rain
5:00 PM 39.9 °F 33.4 °F 39.0 °F 97% 29.74 in 2.0 mi ENE 10.4 mph - 0.07 in Rain , Thunderstorm Rain
5:21 PM 39.9 °F 33.9 °F 39.0 °F 97% 29.73 in 1.8 mi ENE 9.2 mph - 0.16 in Rain Rain
5:29 PM 39.9 °F 33.4 °F 39.0 °F 97% 29.72 in 2.5 mi ENE 10.4 mph - 0.19 in Rain Rain
5:33 PM 39.9 °F 32.5 °F 39.0 °F 97% 29.72 in 4.0 mi ENE 12.7 mph - 0.19 in Rain Light Rain
5:48 PM 39.2 °F 32.0 °F 37.4 °F 93% 29.72 in 4.0 mi East 11.5 mph - 0.19 in Rain Light Rain
5:52 PM 39.9 °F 32.9 °F 39.0 °F 97% 29.74 in 3.0 mi East 11.5 mph - 0.19 in Rain Light Rain
6:52 PM 41.0 °F 37.1 °F 39.0 °F 93% 29.74 in 2.5 mi ENE 5.8 mph - 0.06 in Rain Heavy Rain
7:03 PM 41.0 °F 34.7 °F 39.0 °F 93% 29.71 in 6.0 mi East 10.4 mph - 0.01 in Rain Light Rain
7:52 PM 41.0 °F 35.2 °F 39.0 °F 93% 29.71 in 10.0 mi ESE 9.2 mph - 0.01 in   Overcast
8:52 PM 41.0 °F 36.4 °F 39.0 °F 93% 29.73 in 6.0 mi ESE 6.9 mph - N/A   Overcast
9:03 PM 41.0 °F 35.8 °F 39.0 °F 93% 29.71 in 4.0 mi ESE 8.1 mph - N/A   Overcast
9:52 PM 39.9 °F 34.5 °F 39.0 °F 97% 29.73 in 4.0 mi East 8.1 mph - N/A   Overcast
10:52 PM 39.9 °F 33.9 °F 39.0 °F 97% 29.72 in 6.0 mi SE 9.2 mph - N/A   Overcast
11:52 PM 39.9 °F 35.1 °F 39.0 °F 97% 29.73 in 5.0 mi SSE 6.9 mph - N/A   Overcast